[[{"header":{"parameterUnit":"m.s-1","parameterCategory":1,"la1":30.2991,"la2":30.254,"lo1":-89.0895,"lo2":-89.0444,"dy":0.0017,"dx":0.0017,"nx":28,"ny":28,"refTime":"2024-03-16T09:00:00:Z","depth":0,"parameterNumber":2,"parameterNumberName":"U-component_of_WINDS"},"data":[0,0,0,0,0,0,0,0,0,0,0,0,0,0,0,0,0,0,0,0,0,0,0,0,0,0,0,0,0,0,0,0,0,0,0,0,0,0,0,0,0,0,0,0,0,0,0,0,0,0,0,0,0,0,0,0,0,0,1.5809,1.5811,0,1.6035,1.6038,1.604,1.6104,1.6103,1.6102,1.61,1.6334,1.6342,1.6349,0,0,0,0,0,0,0,0,0,0,0,0,0,1.5434,1.544,1.5809,1.5811,1.5814,1.6035,1.6038,1.6041,1.6104,1.6103,1.6101,1.61,1.6332,1.6341,1.635,0,0,0,0,0,0,0,0,0,0,0,0,0,1.5622,1.5443,1.5808,1.5872,1.588,1.6034,1.6038,1.6042,1.6105,1.6103,1.6101,1.6099,1.6329,1.634,1.6351,1.6457,0,0,1.6385,1.639,0,0,0,0,0,0,0,0,1.5611,1.5636,1.586,1.5868,1.5878,1.6039,1.5992,1.6181,1.6105,1.602,1.61,1.6098,1.6238,1.6256,1.6303,1.6468,1.6478,1.6386,1.6393,1.6397,1.64,0,0,0,0,0,0,0,1.5598,1.5626,1.5898,1.5863,1.5874,1.5891,1.5916,1.6028,1.6137,1.6027,1.6032,1.6058,1.6242,1.6292,1.6309,1.6482,1.6385,1.6395,1.6402,1.6407,1.6748,1.6751,0,0,0,0,0,0,1.5574,1.5615,1.5891,1.5905,1.5737,1.5899,1.5927,1.5989,1.6136,1.6156,1.6059,1.606,1.6274,1.6296,1.6318,1.6454,1.6397,1.6408,1.6414,1.6746,1.6749,1.6752,0,0,0,0,0,0,1.5566,1.5598,1.5882,1.5762,1.5799,1.5908,1.5978,1.5995,1.6045,1.616,1.618,1.609,1.6274,1.6302,1.6423,1.6462,1.6413,1.6423,1.6743,1.6747,1.675,1.6725,0,0,0,0,0,0,1.5555,1.5594,1.5635,1.5762,1.5805,1.5982,1.598,1.6001,1.6064,1.6067,1.6194,1.6214,1.6274,1.6406,1.6434,1.6477,1.6431,1.674,1.6745,1.6749,1.6723,1.6727,1.6731,0,0,0,0,0,1.5541,1.5619,1.5637,1.567,1.5858,1.5984,1.6009,1.6076,1.6066,1.6109,1.6183,1.621,1.6453,1.6417,1.6449,1.6497,1.6738,1.6744,1.6749,1.6721,1.6726,1.6731,0,0,0,0,0,0,1.5494,1.5637,1.5658,1.5779,1.5869,1.5995,1.605,1.608,1.6175,1.6174,1.6254,1.6283,1.6398,1.646,1.6417,1.6609,1.6596,1.6609,1.6564,1.657,1.6574,1.6557,1.6441,0,0,0,0,0,1.5498,1.5587,1.5707,1.5803,1.5847,1.5941,1.5998,1.6042,1.6139,1.6177,1.626,1.6354,1.6452,1.6514,1.6611,1.6732,1.6762,1.678,1.6784,1.6787,1.6797,1.6868,1.6878,1.6769,1.6769,1.6769,0,0,1.5506,1.5595,1.5647,1.5796,1.587,1.5962,1.5972,1.6068,1.6138,1.6192,1.6311,1.6376,1.6485,1.6607,1.6665,1.6662,1.6834,1.6794,1.6796,1.6804,1.6874,1.6884,1.6893,1.6773,1.6773,1.6772,0,0,1.5569,1.5645,1.5734,1.5809,1.5922,1.5984,1.6005,1.6127,1.6172,1.6292,1.6335,1.642,1.6586,1.6663,1.6724,1.6818,1.6846,1.6847,1.6869,1.6937,1.6946,1.6954,1.6989,1.7,1.6856,1.6856,1.6856,0,1.5566,1.5705,1.5775,1.5871,1.5935,1.5989,1.608,1.6149,1.6288,1.6332,1.6327,1.6538,1.6616,1.6757,1.678,1.6827,1.6855,1.6833,1.6939,1.6947,1.6956,1.699,1.7003,1.6856,1.6856,1.6856,1.6856,0,1.5696,1.5792,1.5851,1.5983,1.6055,1.6147,1.6233,1.6297,1.6335,1.6399,1.6522,1.6617,1.6734,1.6771,1.681,1.6919,1.6914,1.6922,1.6912,1.6964,1.6998,1.7012,1.6855,1.6855,1.6855,1.6856,0,0,1.5735,1.5906,1.5927,1.5988,1.6118,1.6194,1.629,1.6404,1.6458,1.6553,1.6636,1.6777,1.6786,1.6855,1.6903,1.6963,1.7033,1.6965,1.6969,1.6975,1.7161,1.7154,1.7168,1.7053,1.7055,1.7058,1.7152,0,1.5815,1.5987,1.6054,1.6194,1.6285,1.6338,1.6422,1.6511,1.6573,1.666,1.6729,1.6828,1.6832,1.6874,1.6936,1.7011,1.7072,1.7005,1.7132,1.7136,1.7103,1.7185,1.7178,1.7262,1.7166,1.7168,1.717,0,1.593,1.6026,1.6176,1.6296,1.6336,1.641,1.6522,1.6604,1.6707,1.6748,1.6826,1.6871,1.6975,1.6957,1.7103,1.7056,1.7113,1.7158,1.7163,1.7178,1.7156,1.7203,1.7291,1.7304,1.7191,1.7189,1.7187,0,1.5945,1.6111,1.6223,1.6274,1.6416,1.6467,1.6529,1.663,1.6695,1.6793,1.6837,1.6945,1.7005,1.7089,1.7162,1.7143,1.7302,1.729,1.734,1.7338,1.7371,1.7368,1.747,1.7406,1.7406,1.7405,1.7405,0,1.6027,1.6117,1.6231,1.63,1.6403,1.6479,1.6579,1.6645,1.6735,1.6818,1.6871,1.6948,1.7041,1.7131,1.7189,1.7302,1.7328,1.7365,1.738,1.7361,1.7356,1.7399,1.7395,1.7409,1.7408,1.7408,1.7407,0,1.606,1.614,1.6265,1.639,1.6424,1.6494,1.6602,1.6672,1.6737,1.6842,1.6871,1.6973,1.7082,1.7164,1.7305,1.7344,1.7464,1.7479,1.7429,1.7437,1.7482,1.7477,1.7616,1.7638,1.7558,1.7559,1.7559,0,1.6107,1.6178,1.6311,1.637,1.6432,1.6526,1.6593,1.6673,1.674,1.6864,1.6919,1.7031,1.7125,1.7297,1.7385,1.7493,1.7512,1.7553,1.7529,1.7508,1.7514,1.7509,1.7517,1.7556,1.7557,1.7557,1.7557,0,1.6183,1.622,1.6314,1.6422,1.6501,1.659,1.6681,1.6727,1.6822,1.6896,1.7008,1.708,1.7225,1.7336,1.7454,1.752,1.7556,1.7565,1.7582,1.7564,1.7532,1.7551,1.7439,1.7561,1.7561,1.756,1.756,1.756,1.6226,1.6291,1.6395,1.6499,1.6576,1.6659,1.6731,1.6805,1.69,1.7023,1.7064,1.718,1.7284,1.7446,1.7512,1.7605,1.7606,1.763,1.7637,1.7642,1.7641,1.7517,1.7627,1.7627,1.7627,1.7627,1.7627,0,1.6305,1.6375,1.6469,1.6595,1.6677,1.6702,1.6804,1.6872,1.6972,1.7066,1.7158,1.7287,1.7396,1.7493,1.7606,1.7662,1.7681,1.7689,1.7686,1.7701,1.7634,1.7608,1.7672,1.7672,1.7672,1.7672,1.7672,1.7672,1.6356,1.6469,1.6518,1.667,1.674,1.6853,1.6909,1.6988,1.7063,1.7205,1.7295,1.7357,1.7453,1.7575,1.7676,1.7702,1.7742,1.7746,1.7776,1.7711,1.7706,1.77,1.7676,1.7754,1.7754,1.7837,1.7837,1.7838]},{"header":{"parameterUnit":"m.s-1","parameterCategory":1,"la1":30.2991,"la2":30.254,"lo1":-89.0895,"lo2":-89.0444,"dy":0.0017,"dx":0.0017,"nx":28,"ny":28,"refTime":"2024-03-16T09:00:00:Z","depth":0,"parameterNumber":3,"parameterNumberName":"V-component_of_WINDS"},"data":[0,0,0,0,0,0,0,0,0,0,0,0,0,0,0,0,0,0,0,0,0,0,0,0,0,0,0,0,0,0,0,0,0,0,0,0,0,0,0,0,0,0,0,0,0,0,0,0,0,0,0,0,0,0,0,0,0,0,-4.0627,-4.0628,0,-4.0747,-4.0748,-4.0749,-4.0685,-4.0682,-4.0679,-4.0675,-4.08,-4.0806,-4.0812,0,0,0,0,0,0,0,0,0,0,0,0,0,-4.0345,-4.035,-4.0627,-4.0628,-4.063,-4.0746,-4.0748,-4.075,-4.0686,-4.0682,-4.0678,-4.0674,-4.0798,-4.0805,-4.0813,0,0,0,0,0,0,0,0,0,0,0,0,0,-4.0466,-4.0352,-4.0626,-4.0612,-4.0612,-4.0746,-4.0748,-4.075,-4.0686,-4.0682,-4.0677,-4.0672,-4.0795,-4.0805,-4.0814,-4.097,0,0,-4.0843,-4.0847,0,0,0,0,0,0,0,0,-4.046,-4.0477,-4.0612,-4.0613,-4.0613,-4.0696,-4.0694,-4.0824,-4.0688,-4.0658,-4.0675,-4.067,-4.0769,-4.0781,-4.0814,-4.0976,-4.0982,-4.0844,-4.085,-4.0854,-4.0857,0,0,0,0,0,0,0,-4.0451,-4.0471,-4.0674,-4.0615,-4.0615,-4.06,-4.0612,-4.0719,-4.074,-4.066,-4.0656,-4.0671,-4.0769,-4.0805,-4.0816,-4.0983,-4.0844,-4.0852,-4.0858,-4.0862,-4.1282,-4.1287,0,0,0,0,0,0,-4.0443,-4.0465,-4.067,-4.0678,-4.0523,-4.0609,-4.0622,-4.0674,-4.0738,-4.0743,-4.0675,-4.0667,-4.0791,-4.0805,-4.0821,-4.1009,-4.0854,-4.0863,-4.0868,-4.1276,-4.1283,-4.1289,0,0,0,0,0,0,-4.0438,-4.0462,-4.0666,-4.057,-4.0595,-4.0619,-4.0678,-4.0679,-4.0715,-4.0749,-4.0753,-4.0708,-4.0788,-4.0807,-4.0934,-4.1012,-4.0867,-4.0876,-4.127,-4.1279,-4.1286,-4.1386,0,0,0,0,0,0,-4.043,-4.0461,-4.052,-4.0572,-4.06,-4.0776,-4.0683,-4.0685,-4.0732,-4.0723,-4.0781,-4.0786,-4.0786,-4.092,-4.0943,-4.1023,-4.0883,-4.1263,-4.1274,-4.1283,-4.1376,-4.1397,-4.1415,0,0,0,0,0,-4.042,-4.0543,-4.0523,-4.0548,-4.0674,-4.0781,-4.0797,-4.0793,-4.0738,-4.0798,-4.082,-4.0785,-4.1,-4.0934,-4.0959,-4.1043,-4.1258,-4.1271,-4.1283,-4.1368,-4.1393,-4.1414,0,0,0,0,0,0,-4.05,-4.055,-4.0528,-4.0671,-4.0722,-4.077,-4.0845,-4.082,-4.0888,-4.0877,-4.087,-4.0884,-4.1016,-4.1042,-4.0967,-4.1198,-4.1121,-4.1139,-4.1176,-4.1201,-4.122,-4.1211,-4.0891,0,0,0,0,0,-4.0534,-4.0616,-4.0655,-4.0778,-4.0805,-4.0821,-4.0867,-4.086,-4.0913,-4.0934,-4.0965,-4.1018,-4.1098,-4.1151,-4.1226,-4.138,-4.1392,-4.145,-4.1469,-4.1485,-4.1501,-4.1586,-4.1612,-4.1329,-4.1329,-4.1329,0,0,-4.0605,-4.0643,-4.0695,-4.0795,-4.0834,-4.092,-4.0839,-4.0933,-4.0997,-4.0948,-4.107,-4.1095,-4.1154,-4.1296,-4.1359,-4.1321,-4.1582,-4.1501,-4.1513,-4.152,-4.1601,-4.1628,-4.1652,-4.1338,-4.1336,-4.1335,0,0,-4.078,-4.0816,-4.0923,-4.0964,-4.1023,-4.1033,-4.1059,-4.1111,-4.1126,-4.1248,-4.1213,-4.129,-4.1427,-4.1471,-4.1511,-4.1704,-4.1674,-4.1729,-4.183,-4.1913,-4.1935,-4.1955,-4.2025,-4.205,-4.1744,-4.1745,-4.1745,0,-4.0861,-4.0989,-4.0981,-4.1078,-4.1124,-4.1084,-4.1193,-4.1233,-4.1314,-4.1347,-4.1303,-4.1476,-4.1513,-4.1664,-4.1712,-4.1745,-4.1776,-4.1722,-4.1932,-4.1952,-4.1971,-4.2038,-4.2064,-4.1751,-4.175,-4.175,-4.1749,0,-4.1087,-4.1176,-4.1255,-4.1335,-4.1389,-4.1492,-4.1501,-4.1558,-4.1546,-4.1561,-4.1687,-4.173,-4.1814,-4.1849,-4.1839,-4.2001,-4.1975,-4.1932,-4.1854,-4.2004,-4.2067,-4.2092,-4.176,-4.1758,-4.1756,-4.1754,0,0,-4.1314,-4.1389,-4.1418,-4.1455,-4.1518,-4.1587,-4.1689,-4.177,-4.182,-4.1878,-4.1964,-4.2081,-4.2042,-4.2088,-4.2083,-4.2155,-4.2307,-4.2103,-4.2105,-4.2141,-4.249,-4.2523,-4.2553,-4.2288,-4.2293,-4.2296,-4.2486,0,-4.1493,-4.167,-4.1667,-4.1832,-4.1915,-4.1878,-4.1967,-4.2016,-4.2034,-4.2107,-4.2127,-4.2211,-4.2152,-4.218,-4.225,-4.2274,-4.2378,-4.226,-4.2369,-4.2373,-4.2356,-4.2586,-4.262,-4.2797,-4.251,-4.2514,-4.2517,0,-4.1726,-4.1792,-4.1964,-4.2017,-4.2052,-4.2131,-4.2207,-4.2278,-4.2334,-4.2341,-4.2393,-4.2377,-4.2481,-4.24,-4.2545,-4.2465,-4.251,-4.2529,-4.2535,-4.2546,-4.2455,-4.2604,-4.2853,-4.288,-4.2556,-4.2553,-4.255,0,-4.1876,-4.2007,-4.2128,-4.216,-4.2224,-4.2282,-4.2311,-4.2362,-4.2412,-4.2479,-4.2511,-4.2589,-4.2632,-4.2694,-4.2699,-4.2639,-4.2846,-4.2765,-4.2857,-4.2857,-4.2903,-4.29,-4.3164,-4.293,-4.2929,-4.2929,-4.2928,0,-4.2077,-4.2184,-4.2197,-4.2271,-4.2391,-4.2387,-4.2507,-4.2531,-4.2577,-4.2657,-4.263,-4.2706,-4.2708,-4.2785,-4.279,-4.2911,-4.293,-4.2941,-4.2941,-4.2944,-4.2943,-4.2974,-4.2962,-4.2936,-4.2934,-4.2933,-4.2932,0,-4.2264,-4.2277,-4.2406,-4.2457,-4.2472,-4.2559,-4.2602,-4.2674,-4.2689,-4.2791,-4.2814,-4.2839,-4.2929,-4.294,-4.3046,-4.3049,-4.3195,-4.3182,-4.3176,-4.3175,-4.3267,-4.3259,-4.3561,-4.3601,-4.3339,-4.3342,-4.3344,0,-4.2392,-4.2474,-4.2534,-4.2585,-4.2618,-4.2701,-4.2752,-4.2752,-4.2806,-4.2877,-4.2941,-4.3028,-4.3098,-4.3245,-4.3273,-4.3354,-4.3343,-4.3443,-4.3355,-4.3356,-4.3347,-4.3343,-4.3352,-4.3461,-4.3464,-4.3466,-4.3468,0,-4.2619,-4.2621,-4.2695,-4.2773,-4.2834,-4.2895,-4.2952,-4.2996,-4.3004,-4.3067,-4.3159,-4.3213,-4.3321,-4.3409,-4.349,-4.3521,-4.3498,-4.3495,-4.3521,-4.3526,-4.352,-4.3527,-4.3224,-4.3489,-4.3487,-4.3485,-4.3484,-4.3483,-4.2781,-4.2853,-4.2907,-4.2991,-4.3034,-4.3089,-4.3159,-4.3183,-4.326,-4.3348,-4.3343,-4.3445,-4.3501,-4.3606,-4.3644,-4.3725,-4.3692,-4.3729,-4.3739,-4.3748,-4.3759,-4.3506,-4.3739,-4.3739,-4.3738,-4.3738,-4.3737,0,-4.3007,-4.304,-4.3118,-4.3199,-4.3266,-4.3236,-4.3299,-4.3357,-4.3447,-4.3501,-4.357,-4.3677,-4.3763,-4.3798,-4.3883,-4.3941,-4.3932,-4.3963,-4.396,-4.3968,-4.3782,-4.3752,-4.3969,-4.3969,-4.3969,-4.3969,-4.3969,-4.3969,-4.3133,-4.3254,-4.3263,-4.3405,-4.3438,-4.3537,-4.3576,-4.3627,-4.367,-4.379,-4.3861,-4.3883,-4.393,-4.4018,-4.4096,-4.4105,-4.4138,-4.4175,-4.4178,-4.4004,-4.3981,-4.3958,-4.393,-4.4181,-4.4182,-4.4358,-4.4359,-4.4361]}]]